Volver al catálogo

FENGYUN 1C DEB

ActivoSSO
NORAD 38148·DEBRIS·🇨🇳 China

Lanzado May 10, 1999 desde Taiyuan Satellite Launch Center

Loading…

Próximos Pases (próximas 24 horas)

TLE

ActualizadoSource: Space-Track

Época: Sep 14, 2026, 03:09 UTC

1 38148U 99025EQV 26257.13173291  .00001568  00000-0  10347-2 0  9995
2 38148  99.0617  13.0582 0155224  88.3703 273.5232 13.97442799634816

Sigue FENGYUN 1C DEB en tiempo real con AllMySat

Download on the App Store